[[{"header":{"parameterUnit":"m.s-1","parameterCategory":2,"la1":30.2991,"la2":30.254,"lo1":-89.0895,"lo2":-89.0444,"dy":0.0017,"dx":0.0017,"nx":28,"ny":28,"refTime":"2025-03-16T09:00:00:Z","depth":"0","parameterNumber":2,"parameterNumberName":"U-component_of_CURRENTS"},"data":[0,0,0,0,0,0,0,0,0,0,0,0,0,0,0,0,0,0,0,0,0,0,0,0,0,0,0,0,0,0,0,0,0,0,0,0,0,0,0,0,0,0,0,0,0,0,0,0,0,0,0,0,0,0,0,0,0,0,0.2866,0.2867,0,0.2884,0.2884,0.2883,0.2901,0.2902,0.2903,0.2903,0.2831,0.2828,0.2825,0,0,0,0,0,0,0,0,0,0,0,0,0,0.2895,0.2894,0.2866,0.2867,0.2868,0.2884,0.2884,0.2883,0.2901,0.2902,0.2903,0.2904,0.2832,0.2828,0.2825,0,0,0,0,0,0,0,0,0,0,0,0,0,0.2887,0.2893,0.2866,0.2884,0.2886,0.2884,0.2884,0.2883,0.29,0.2902,0.2903,0.2904,0.2833,0.2829,0.2825,0.2771,0,0,0.2812,0.281,0,0,0,0,0,0,0,0,0.2888,0.2885,0.288,0.2883,0.2886,0.2898,0.2868,0.2844,0.29,0.2887,0.2903,0.2905,0.2849,0.2843,0.2834,0.2767,0.2764,0.2811,0.2809,0.2807,0.2806,0,0,0,0,0,0,0,0.2888,0.2885,0.2865,0.2882,0.2885,0.2909,0.2908,0.2863,0.2852,0.2888,0.2891,0.2905,0.2849,0.2838,0.2832,0.2763,0.2811,0.2808,0.2805,0.2803,0.2699,0.2699,0,0,0,0,0,0,0.2897,0.2885,0.2865,0.2867,0.2899,0.2908,0.2906,0.2886,0.2855,0.2854,0.2904,0.2906,0.2845,0.2837,0.283,0.2815,0.2807,0.2803,0.2801,0.2699,0.2699,0.2698,0,0,0,0,0,0,0.2897,0.2893,0.2864,0.2885,0.2884,0.2906,0.2884,0.2886,0.2881,0.2869,0.2866,0.2899,0.2845,0.2836,0.2811,0.2811,0.2801,0.2797,0.2699,0.2699,0.2699,0.2752,0,0,0,0,0,0,0.2897,0.2892,0.2877,0.2884,0.2883,0.2874,0.2883,0.2886,0.2892,0.2894,0.2863,0.2858,0.2846,0.2818,0.2807,0.2805,0.2794,0.27,0.2699,0.2699,0.2751,0.2754,0.2756,0,0,0,0,0,0.2897,0.2869,0.2875,0.2874,0.2861,0.2875,0.2875,0.2892,0.289,0.289,0.2877,0.2859,0.2807,0.2814,0.2802,0.2798,0.27,0.2699,0.2699,0.275,0.2753,0.2756,0,0,0,0,0,0,0.2852,0.2869,0.2876,0.2848,0.287,0.2881,0.2879,0.2887,0.2874,0.287,0.2852,0.2846,0.2829,0.2797,0.2806,0.2766,0.275,0.2747,0.2793,0.2796,0.2799,0.2815,0.279,0,0,0,0,0,0.2841,0.2834,0.2856,0.2834,0.2843,0.2857,0.2862,0.2876,0.2873,0.2869,0.2855,0.2831,0.2812,0.2794,0.2774,0.2737,0.2744,0.2727,0.2729,0.2732,0.2736,0.2764,0.277,0.2697,0.2697,0.2697,0,0,0.2819,0.2827,0.2822,0.2828,0.2837,0.2843,0.2861,0.2869,0.2874,0.2858,0.2846,0.284,0.2807,0.2791,0.2777,0.2765,0.2756,0.2731,0.2734,0.2737,0.2764,0.2771,0.2778,0.2696,0.2696,0.2696,0,0,0.2779,0.2776,0.2765,0.2784,0.2812,0.2828,0.2832,0.2849,0.2859,0.2848,0.2851,0.2852,0.2799,0.2803,0.2789,0.2783,0.2777,0.2765,0.2782,0.2809,0.2817,0.2823,0.2847,0.2855,0.2758,0.2758,0.2758,0,0.275,0.2737,0.2765,0.2765,0.2781,0.2819,0.2817,0.2829,0.284,0.2849,0.2849,0.2828,0.2808,0.2805,0.2816,0.2792,0.2806,0.2777,0.2817,0.2823,0.2828,0.2852,0.286,0.2761,0.276,0.276,0.276,0,0.2714,0.2709,0.2703,0.272,0.2738,0.2745,0.2782,0.2796,0.281,0.283,0.2843,0.284,0.2831,0.2828,0.2817,0.2843,0.2841,0.2829,0.2817,0.284,0.2862,0.287,0.2764,0.2763,0.2763,0.2762,0,0,0.2631,0.2671,0.2667,0.2679,0.272,0.2729,0.2746,0.2778,0.2799,0.2816,0.2841,0.2835,0.2858,0.2845,0.2848,0.2874,0.2932,0.287,0.287,0.2909,0.2998,0.2883,0.2881,0.2934,0.2935,0.2936,0.3001,0,0.2594,0.259,0.2623,0.2626,0.2633,0.2684,0.2705,0.2742,0.2779,0.2816,0.2841,0.2864,0.2856,0.2871,0.2895,0.2929,0.2954,0.2916,0.2956,0.2957,0.2865,0.2886,0.2739,0.2774,0.3008,0.301,0.3011,0,0.2547,0.2559,0.2554,0.2602,0.2609,0.2618,0.2673,0.2698,0.2767,0.2805,0.2844,0.2876,0.2922,0.2915,0.2981,0.296,0.298,0.3005,0.3007,0.2886,0.2855,0.2785,0.2779,0.2712,0.3022,0.3021,0.3021,0,0.2488,0.2508,0.2508,0.252,0.2577,0.2585,0.2614,0.2683,0.2713,0.2807,0.2836,0.2908,0.2929,0.2984,0.3017,0.3013,0.309,0.3085,0.3001,0.2994,0.2867,0.2844,0.2809,0.313,0.313,0.313,0.313,0,0.244,0.2439,0.2478,0.2478,0.2486,0.2541,0.2563,0.262,0.2696,0.2721,0.2819,0.2844,0.2948,0.2992,0.3037,0.3031,0.3099,0.3009,0.3001,0.2878,0.2856,0.2787,0.2761,0.3132,0.3132,0.3131,0.3131,0,0.2377,0.2405,0.2403,0.2445,0.2457,0.2457,0.2512,0.2529,0.2624,0.2659,0.2689,0.2802,0.2858,0.2942,0.3034,0.302,0.2962,0.3038,0.2882,0.2852,0.2678,0.2659,0.2533,0.2464,0.296,0.2958,0.2956,0,0.2346,0.234,0.2357,0.2343,0.2355,0.237,0.2378,0.2478,0.2501,0.2608,0.261,0.2695,0.272,0.2816,0.2842,0.2898,0.2852,0.2779,0.2728,0.2642,0.2619,0.2551,0.25,0.26,0.2595,0.2591,0.2588,0,0.2285,0.2287,0.2278,0.2248,0.2238,0.2243,0.2263,0.228,0.2382,0.242,0.2466,0.2503,0.2575,0.2564,0.2626,0.2641,0.2618,0.2694,0.2655,0.2363,0.2239,0.2176,0.2595,0.2552,0.2556,0.2558,0.256,0.2562,0.2221,0.2192,0.2166,0.2131,0.2122,0.2101,0.2076,0.2111,0.2134,0.2173,0.2273,0.2283,0.2333,0.2388,0.2393,0.2297,0.2341,0.2238,0.2238,0.2191,0.2055,0.2379,0.2285,0.2287,0.2289,0.229,0.2292,0,0.2115,0.2088,0.205,0.1999,0.1948,0.1985,0.1982,0.1951,0.193,0.1993,0.2023,0.202,0.1988,0.2032,0.1974,0.1886,0.1837,0.1834,0.1734,0.1721,0.2055,0.1967,0.1737,0.1737,0.1737,0.1737,0.1737,0.1738,0.2056,0.1978,0.1957,0.1841,0.1807,0.173,0.1711,0.1688,0.1713,0.1685,0.1678,0.1719,0.1781,0.1736,0.1629,0.1588,0.1501,0.1387,0.1445,0.1708,0.1747,0.1784,0.1696,0.1413,0.1413,0.1034,0.1031,0.1028]},{"header":{"parameterUnit":"m.s-1","parameterCategory":2,"la1":30.2991,"la2":30.254,"lo1":-89.0895,"lo2":-89.0444,"dy":0.0017,"dx":0.0017,"nx":28,"ny":28,"refTime":"2025-03-16T09:00:00:Z","depth":"0","parameterNumber":3,"parameterNumberName":"V-component_of_CURRENTS"},"data":[0,0,0,0,0,0,0,0,0,0,0,0,0,0,0,0,0,0,0,0,0,0,0,0,0,0,0,0,0,0,0,0,0,0,0,0,0,0,0,0,0,0,0,0,0,0,0,0,0,0,0,0,0,0,0,0,0,0,-0.0555,-0.0556,0,-0.061,-0.0611,-0.0611,-0.0675,-0.0676,-0.0678,-0.0679,-0.0715,-0.0715,-0.0715,0,0,0,0,0,0,0,0,0,0,0,0,0,-0.0565,-0.0564,-0.0555,-0.0556,-0.0557,-0.061,-0.0611,-0.0611,-0.0675,-0.0676,-0.0678,-0.0679,-0.0716,-0.0715,-0.0715,0,0,0,0,0,0,0,0,0,0,0,0,0,-0.0582,-0.0563,-0.0555,-0.0597,-0.0602,-0.061,-0.0611,-0.0611,-0.0675,-0.0677,-0.0678,-0.068,-0.0716,-0.0715,-0.0715,-0.0678,0,0,-0.0715,-0.0714,0,0,0,0,0,0,0,0,-0.0581,-0.0581,-0.059,-0.0594,-0.0599,-0.064,-0.0628,-0.0634,-0.0674,-0.0644,-0.0679,-0.0681,-0.0689,-0.0691,-0.0694,-0.068,-0.0681,-0.0715,-0.0714,-0.0714,-0.0714,0,0,0,0,0,0,0,-0.0579,-0.0579,-0.0575,-0.0591,-0.0597,-0.0634,-0.0637,-0.0629,-0.0654,-0.0647,-0.0653,-0.0662,-0.0691,-0.0694,-0.0695,-0.0682,-0.0715,-0.0714,-0.0714,-0.0714,-0.0644,-0.0642,0,0,0,0,0,0,-0.0572,-0.0577,-0.0573,-0.0577,-0.0597,-0.0632,-0.0636,-0.0623,-0.0654,-0.0662,-0.066,-0.0665,-0.0694,-0.0695,-0.0697,-0.0661,-0.0714,-0.0714,-0.0714,-0.0646,-0.0643,-0.0642,0,0,0,0,0,0,-0.0571,-0.057,-0.0571,-0.0582,-0.0585,-0.063,-0.0615,-0.0623,-0.0635,-0.0665,-0.0672,-0.0665,-0.0695,-0.0697,-0.0689,-0.0663,-0.0714,-0.0714,-0.0648,-0.0645,-0.0643,-0.0585,0,0,0,0,0,0,-0.0571,-0.0569,-0.0552,-0.058,-0.0584,-0.0569,-0.0614,-0.0623,-0.0638,-0.0645,-0.067,-0.0676,-0.0697,-0.0689,-0.0689,-0.0664,-0.0714,-0.065,-0.0646,-0.0643,-0.0589,-0.0581,-0.0574,0,0,0,0,0,-0.0571,-0.0527,-0.055,-0.055,-0.056,-0.0569,-0.0573,-0.0611,-0.0637,-0.063,-0.065,-0.0675,-0.0668,-0.0687,-0.0687,-0.0662,-0.0651,-0.0647,-0.0644,-0.0593,-0.0582,-0.0574,0,0,0,0,0,0,-0.0498,-0.0531,-0.0557,-0.0519,-0.0546,-0.0581,-0.057,-0.0604,-0.0614,-0.0618,-0.0654,-0.0659,-0.0645,-0.0652,-0.0673,-0.0629,-0.0662,-0.0658,-0.0623,-0.0614,-0.0606,-0.0596,-0.0714,0,0,0,0,0,-0.048,-0.0467,-0.0508,-0.0476,-0.0488,-0.0531,-0.0539,-0.0568,-0.0586,-0.0594,-0.0611,-0.062,-0.0624,-0.0621,-0.0624,-0.0593,-0.0603,-0.0575,-0.0567,-0.056,-0.055,-0.0548,-0.054,-0.0629,-0.0629,-0.0629,0,0,-0.0441,-0.0458,-0.0449,-0.0463,-0.0484,-0.0478,-0.0539,-0.0541,-0.0535,-0.0591,-0.0571,-0.0596,-0.0612,-0.0589,-0.0581,-0.0593,-0.0537,-0.0555,-0.055,-0.0543,-0.0543,-0.0535,-0.0527,-0.0626,-0.0627,-0.0627,0,0,-0.0366,-0.0374,-0.0353,-0.037,-0.0404,-0.0428,-0.0429,-0.0463,-0.0481,-0.0472,-0.0512,-0.052,-0.0514,-0.0525,-0.053,-0.0474,-0.0502,-0.0472,-0.0418,-0.0416,-0.0409,-0.0403,-0.0395,-0.0388,-0.0461,-0.046,-0.046,0,-0.032,-0.03,-0.0344,-0.0331,-0.0336,-0.0401,-0.0379,-0.0394,-0.042,-0.0424,-0.0454,-0.046,-0.0482,-0.0462,-0.0451,-0.0458,-0.046,-0.0457,-0.0407,-0.0401,-0.0396,-0.039,-0.0384,-0.0457,-0.0458,-0.0458,-0.0458,0,-0.0247,-0.0232,-0.0213,-0.0224,-0.0228,-0.0216,-0.0256,-0.0258,-0.029,-0.0314,-0.0315,-0.0351,-0.0359,-0.0365,-0.0395,-0.0364,-0.0379,-0.0407,-0.0435,-0.0384,-0.038,-0.0375,-0.0453,-0.0454,-0.0455,-0.0456,0,0,-0.0146,-0.0162,-0.0156,-0.0156,-0.0176,-0.0172,-0.0153,-0.0163,-0.0152,-0.0185,-0.017,-0.0198,-0.024,-0.0247,-0.0288,-0.0288,-0.0265,-0.0327,-0.0329,-0.0326,-0.0252,-0.0255,-0.025,-0.0288,-0.0287,-0.0286,-0.026,0,-0.0083,-0.0044,-0.0065,-0.002,-0.001,-0.0052,-0.0029,-0.0045,-0.0067,-0.0062,-0.0116,-0.0119,-0.0188,-0.0199,-0.0209,-0.0254,-0.0249,-0.0268,-0.0295,-0.0295,-0.0311,-0.0243,-0.0219,-0.0194,-0.0255,-0.0254,-0.0254,0,-0.0019,-0.0005,0.0044,0.0052,0.0055,0.0081,0.0092,0.0102,0.0087,0.0065,0.0044,-0.0006,-0.0023,-0.009,-0.0129,-0.0139,-0.0185,-0.0221,-0.0221,-0.0241,-0.0288,-0.0255,-0.0182,-0.0251,-0.0246,-0.0247,-0.0248,0,0.0037,0.007,0.0108,0.0113,0.0121,0.0142,0.0151,0.0146,0.0163,0.0147,0.0154,0.011,0.0094,0.0033,-0.0062,-0.009,-0.0099,-0.0149,-0.0189,-0.019,-0.0181,-0.0183,-0.0184,-0.0162,-0.0162,-0.0162,-0.0162,0,0.0094,0.0124,0.0139,0.0159,0.0216,0.0201,0.0257,0.025,0.0265,0.03,0.0222,0.0242,0.0123,0.0088,-0.0005,-0.007,-0.0055,-0.0158,-0.0176,-0.0159,-0.0159,-0.0231,-0.0283,-0.0161,-0.0161,-0.0162,-0.0162,0,0.0132,0.0141,0.0189,0.0222,0.0239,0.028,0.0328,0.0365,0.036,0.0408,0.0406,0.036,0.0311,0.0197,0.0109,0.0014,-0.0091,-0.0089,-0.0059,-0.0074,-0.0186,-0.0235,-0.0245,-0.0277,-0.0119,-0.0119,-0.0118,0,0.0149,0.0177,0.0241,0.0283,0.0302,0.0358,0.0399,0.0412,0.046,0.0485,0.0523,0.0485,0.0475,0.0348,0.0179,0.0043,-0.0056,-0.0039,-0.0095,-0.0164,-0.0232,-0.0266,-0.0295,-0.0057,-0.0056,-0.0056,-0.0055,0,0.0188,0.0213,0.0259,0.0345,0.0404,0.0468,0.0533,0.0589,0.061,0.0653,0.0714,0.0713,0.058,0.046,0.0252,0.0138,-0.0076,-0.0033,-0.0107,-0.0175,-0.0207,-0.0254,-0.0105,-0.0051,-0.0051,-0.0051,-0.0052,-0.0052,0.0226,0.0268,0.0336,0.0417,0.0487,0.0576,0.064,0.0716,0.0806,0.0885,0.0873,0.0896,0.0698,0.0426,0.0261,-0.002,-0.0038,-0.0108,-0.0157,-0.0182,-0.0222,-0.0057,-0.0028,-0.0028,-0.0028,-0.0029,-0.0029,0,0.0275,0.0323,0.0401,0.05,0.0582,0.0607,0.0726,0.0797,0.0916,0.0997,0.1053,0.098,0.0746,0.0468,0.0095,-0.0099,-0.0188,-0.0211,-0.0255,-0.0278,-0.0124,-0.0133,-0.0121,-0.0121,-0.0121,-0.0121,-0.0121,-0.0121,0.0306,0.0383,0.042,0.0563,0.0632,0.0741,0.0814,0.0927,0.1016,0.1132,0.116,0.1157,0.094,0.0308,-0.0114,-0.0218,-0.0355,-0.0381,-0.0458,-0.0363,-0.0357,-0.0352,-0.0371,-0.041,-0.041,-0.0577,-0.0578,-0.058]}],[{"header":{"parameterUnit":"m.s-1","parameterCategory":2,"la1":30.2991,"la2":30.254,"lo1":-89.0895,"lo2":-89.0444,"dy":0.0017,"dx":0.0017,"nx":28,"ny":28,"refTime":"2025-03-16T09:00:00:Z","depth":"2","parameterNumber":2,"parameterNumberName":"U-component_of_CURRENTS"},"data":[0,0,0,0,0,0,0,0,0,0,0,0,0,0,0,0,0,0,0,0,0,0,0,0,0,0,0,0,0,0,0,0,0,0,0,0,0,0,0,0,0,0,0,0,0,0,0,0,0,0,0,0,0,0,0,0,0,0,0.2096,0.2097,0,0.2078,0.2077,0.2075,0.206,0.2061,0.2062,0.2063,0.2088,0.2088,0.2087,0,0,0,0,0,0,0,0,0,0,0,0,0,0.1914,0.1917,0.2096,0.2097,0.2098,0.2078,0.2077,0.2075,0.2059,0.2061,0.2062,0.2064,0.2089,0.2088,0.2087,0,0,0,0,0,0,0,0,0,0,0,0,0,0.1939,0.1918,0.2096,0.21,0.2101,0.2079,0.2077,0.2074,0.2059,0.2061,0.2063,0.2065,0.2089,0.2088,0.2087,0.2043,0,0,0.2085,0.2084,0,0,0,0,0,0,0,0,0.1938,0.1944,0.2098,0.21,0.2102,0.2087,0.2023,0.2072,0.2059,0.2058,0.2063,0.2066,0.2101,0.2099,0.2068,0.2045,0.2046,0.2085,0.2084,0.2084,0.2084,0,0,0,0,0,0,0,0.1937,0.1944,0.2072,0.21,0.2102,0.2035,0.2041,0.2029,0.2057,0.2058,0.2061,0.2084,0.21,0.2069,0.2069,0.2046,0.2085,0.2084,0.2083,0.2083,0.2076,0.2076,0,0,0,0,0,0,0.198,0.1944,0.2073,0.2074,0.2041,0.2039,0.2044,0.2077,0.2057,0.206,0.2083,0.2084,0.2069,0.207,0.207,0.2113,0.2084,0.2083,0.2083,0.2076,0.2076,0.2077,0,0,0,0,0,0,0.1977,0.1992,0.2074,0.202,0.2028,0.2043,0.2077,0.2076,0.2066,0.2078,0.2078,0.208,0.2071,0.2071,0.208,0.2111,0.2083,0.2082,0.2076,0.2076,0.2076,0.2138,0,0,0,0,0,0,0.1971,0.1991,0.2014,0.2024,0.2033,0.2051,0.2077,0.2075,0.2084,0.2085,0.2075,0.2078,0.2072,0.2082,0.208,0.2109,0.2081,0.2075,0.2076,0.2076,0.2136,0.2141,0.2145,0,0,0,0,0,0.1965,0.2001,0.2016,0.2032,0.2071,0.2052,0.2046,0.2052,0.2082,0.2053,0.2075,0.2079,0.2084,0.2081,0.2078,0.2109,0.2075,0.2076,0.2076,0.2134,0.214,0.2145,0,0,0,0,0,0,0.196,0.2005,0.2021,0.2078,0.2062,0.2055,0.2057,0.2058,0.2046,0.207,0.2075,0.2077,0.2099,0.2085,0.2081,0.2106,0.2083,0.2083,0.2127,0.2133,0.2137,0.2154,0.2081,0,0,0,0,0,0.1968,0.1987,0.2015,0.205,0.2059,0.2056,0.2054,0.2053,0.2058,0.2054,0.2066,0.2081,0.2091,0.21,0.2095,0.2101,0.2102,0.212,0.2124,0.2128,0.2139,0.2163,0.2172,0.2079,0.2079,0.2079,0,0,0.1967,0.2006,0.2011,0.2045,0.2047,0.2047,0.2055,0.2058,0.2066,0.2062,0.2087,0.2094,0.2094,0.2109,0.2118,0.2109,0.2153,0.2129,0.2133,0.2142,0.2165,0.2174,0.2183,0.2079,0.2079,0.2079,0,0,0.1969,0.2022,0.2027,0.2034,0.2056,0.2045,0.2054,0.2059,0.207,0.2081,0.2099,0.2126,0.2129,0.2143,0.215,0.2172,0.2175,0.2174,0.2217,0.224,0.2249,0.2256,0.2265,0.2273,0.218,0.218,0.218,0,0.1957,0.1999,0.2016,0.2042,0.2056,0.2055,0.2056,0.2061,0.2067,0.2089,0.2101,0.2145,0.2149,0.2185,0.2203,0.2187,0.2195,0.22,0.2249,0.2256,0.2263,0.227,0.2278,0.2183,0.2182,0.2182,0.2182,0,0.1972,0.2002,0.2017,0.2042,0.2044,0.2045,0.2073,0.208,0.2109,0.2125,0.2175,0.2187,0.2212,0.2226,0.2228,0.2279,0.2268,0.2252,0.2241,0.2277,0.2281,0.2288,0.2187,0.2186,0.2185,0.2184,0,0,0.1933,0.1999,0.2004,0.2019,0.2049,0.2049,0.208,0.2091,0.2135,0.2161,0.2215,0.2252,0.2275,0.2284,0.2295,0.2331,0.2388,0.2323,0.2323,0.2343,0.2439,0.2332,0.2329,0.239,0.2391,0.2392,0.2423,0,0.1917,0.1953,0.1992,0.2004,0.2017,0.2049,0.2076,0.2105,0.2142,0.2196,0.2244,0.2298,0.2293,0.2327,0.2358,0.2379,0.2411,0.2381,0.2392,0.2392,0.2302,0.2335,0.2157,0.216,0.2429,0.243,0.2431,0,0.1912,0.1936,0.1952,0.1998,0.2012,0.2025,0.2075,0.2101,0.218,0.2227,0.2288,0.2331,0.2392,0.239,0.2443,0.2427,0.2441,0.246,0.2461,0.2346,0.2298,0.2167,0.2163,0.2443,0.2442,0.2441,0.244,0,0.1863,0.1908,0.1914,0.1936,0.1989,0.2013,0.2036,0.211,0.2145,0.2257,0.2293,0.2376,0.2411,0.2454,0.2476,0.2475,0.2529,0.2521,0.2438,0.243,0.2271,0.2245,0.2569,0.2569,0.2569,0.2569,0.2569,0,0.1837,0.1844,0.1901,0.1914,0.1931,0.1994,0.2032,0.2084,0.2166,0.2204,0.2302,0.2336,0.2434,0.2467,0.2494,0.2469,0.2531,0.2453,0.2435,0.2284,0.226,0.2497,0.2488,0.257,0.257,0.257,0.257,0,0.1785,0.182,0.1832,0.1892,0.1909,0.1928,0.1999,0.2032,0.2122,0.2171,0.221,0.2314,0.2357,0.242,0.2493,0.2462,0.2479,0.2458,0.2266,0.2224,0.2365,0.2359,0.2379,0.2375,0.2373,0.237,0.2368,0,0.1763,0.1764,0.1806,0.181,0.1836,0.1877,0.1897,0.1993,0.2027,0.2132,0.214,0.2227,0.2248,0.2296,0.2301,0.2319,0.2401,0.2154,0.2117,0.2368,0.2349,0.2347,0.2345,0.1936,0.1931,0.1926,0.1923,0,0.1712,0.1726,0.1743,0.1744,0.176,0.178,0.1823,0.1839,0.1942,0.198,0.2022,0.206,0.2102,0.2041,0.2067,0.2056,0.2138,0.2061,0.2383,0.2,0.1949,0.193,0.1944,0.1883,0.1887,0.189,0.1892,0.1894,0.1675,0.1661,0.1676,0.1672,0.1683,0.1678,0.1667,0.1715,0.174,0.1777,0.1859,0.1839,0.1879,0.1813,0.1766,0.1738,0.1892,0.1828,0.1843,0.1862,0.1794,0.1739,0.1621,0.1623,0.1625,0.1627,0.1629,0,0.1613,0.1605,0.1598,0.1585,0.1559,0.1598,0.1606,0.158,0.1565,0.1609,0.1631,0.1499,0.1453,0.1487,0.1381,0.1386,0.1391,0.1334,0.1336,0.1375,0.1411,0.132,0.1022,0.102,0.1018,0.1016,0,0,0.1582,0.1545,0.1531,0.1465,0.1459,0.1403,0.1389,0.1359,0.1364,0.132,0.1291,0.1391,0.1433,0.1207,0.1187,0.1082,0.1221,0.1038,0.1526,0.1567,0.16,0.1697,0.1602,0,0,0,0,0]},{"header":{"parameterUnit":"m.s-1","parameterCategory":2,"la1":30.2991,"la2":30.254,"lo1":-89.0895,"lo2":-89.0444,"dy":0.0017,"dx":0.0017,"nx":28,"ny":28,"refTime":"2025-03-16T09:00:00:Z","depth":"2","parameterNumber":3,"parameterNumberName":"V-component_of_CURRENTS"},"data":[0,0,0,0,0,0,0,0,0,0,0,0,0,0,0,0,0,0,0,0,0,0,0,0,0,0,0,0,0,0,0,0,0,0,0,0,0,0,0,0,0,0,0,0,0,0,0,0,0,0,0,0,0,0,0,0,0,0,0.0262,0.0261,0,0.0216,0.0216,0.0216,0.0188,0.0188,0.0187,0.0187,0.0116,0.0114,0.0113,0,0,0,0,0,0,0,0,0,0,0,0,0,0.0442,0.0438,0.0262,0.0261,0.0261,0.0216,0.0216,0.0216,0.0188,0.0187,0.0187,0.0187,0.0116,0.0115,0.0113,0,0,0,0,0,0,0,0,0,0,0,0,0,0.0379,0.0437,0.0262,0.024,0.0237,0.0217,0.0216,0.0216,0.0188,0.0187,0.0187,0.0186,0.0117,0.0115,0.0112,0.0109,0,0,0.0105,0.0104,0,0,0,0,0,0,0,0,0.0382,0.0373,0.0244,0.0241,0.0238,0.0205,0.0253,0.0178,0.0188,0.0209,0.0187,0.0186,0.0142,0.0138,0.0134,0.0106,0.0103,0.0105,0.0104,0.0103,0.0102,0,0,0,0,0,0,0,0.0387,0.0375,0.0247,0.0243,0.0239,0.0272,0.0261,0.024,0.0181,0.0207,0.0205,0.0196,0.0141,0.0137,0.0132,0.0102,0.0105,0.0103,0.0102,0.0101,0.0043,0.0043,0,0,0,0,0,0,0.0381,0.0378,0.0248,0.0245,0.0308,0.0268,0.0257,0.0218,0.0181,0.0175,0.0196,0.0195,0.0141,0.0135,0.013,0.0108,0.0103,0.0101,0.0099,0.0043,0.0043,0.0043,0,0,0,0,0,0,0.0385,0.0369,0.025,0.0311,0.0298,0.0264,0.0222,0.0218,0.021,0.0173,0.0166,0.0193,0.014,0.0133,0.0115,0.0105,0.01,0.0097,0.0043,0.0043,0.0043,0.0073,0,0,0,0,0,0,0.0389,0.037,0.0343,0.0309,0.0294,0.025,0.0222,0.0217,0.0205,0.0202,0.0168,0.0161,0.0139,0.0119,0.0113,0.0102,0.0096,0.0043,0.0043,0.0043,0.0072,0.0074,0.0076,0,0,0,0,0,0.0396,0.0361,0.0341,0.0326,0.0255,0.025,0.0247,0.0224,0.0205,0.0214,0.0184,0.0162,0.0112,0.0117,0.011,0.0098,0.0044,0.0043,0.0043,0.0072,0.0074,0.0075,0,0,0,0,0,0,0.0404,0.0354,0.0331,0.0275,0.0269,0.0245,0.0241,0.0227,0.021,0.0203,0.0166,0.0158,0.0135,0.0116,0.0123,0.008,0.0071,0.007,0.0096,0.0097,0.0099,0.0118,0.0094,0,0,0,0,0,0.0397,0.037,0.0333,0.0293,0.0289,0.0266,0.0259,0.0248,0.0228,0.022,0.0186,0.0153,0.0129,0.0115,0.009,0.0073,0.0063,0.0059,0.006,0.0062,0.0073,0.0056,0.0058,0.0042,0.0042,0.0042,0,0,0.0393,0.0358,0.0343,0.0298,0.0287,0.0287,0.0262,0.0257,0.0251,0.0214,0.0187,0.0158,0.0126,0.0104,0.0091,0.0087,0.006,0.0061,0.0063,0.0073,0.0056,0.0058,0.0059,0.0041,0.0042,0.0042,0,0,0.0394,0.0339,0.0334,0.0327,0.0312,0.0303,0.0303,0.0277,0.0261,0.0242,0.0207,0.0179,0.0135,0.0113,0.0097,0.0094,0.0069,0.0076,0.0099,0.0083,0.0084,0.0086,0.0073,0.0072,0.0077,0.0077,0.0077,0,0.0396,0.0363,0.0337,0.0332,0.0331,0.0311,0.0321,0.0304,0.0272,0.0261,0.0238,0.0174,0.0141,0.0122,0.0116,0.0097,0.0086,0.0095,0.0086,0.0087,0.0088,0.0074,0.0074,0.0078,0.0078,0.0078,0.0078,0,0.04,0.0378,0.0377,0.0363,0.0363,0.037,0.0347,0.0336,0.0308,0.0287,0.0254,0.021,0.0177,0.0152,0.0131,0.0116,0.0106,0.0091,0.0085,0.0092,0.0076,0.0075,0.008,0.008,0.0079,0.0079,0,0,0.0401,0.0388,0.0388,0.0395,0.0382,0.0387,0.0378,0.0373,0.0372,0.0322,0.0314,0.0254,0.0228,0.0209,0.0172,0.015,0.0135,0.0124,0.0122,0.0118,0.0102,0.0091,0.0088,0.0118,0.0118,0.0118,0.0088,0,0.0423,0.0432,0.0416,0.0438,0.0448,0.043,0.0428,0.0416,0.0395,0.0379,0.0326,0.0302,0.025,0.0236,0.0206,0.0156,0.0134,0.0144,0.009,0.0089,0.0084,0.0087,0.0107,0.0082,0.0087,0.0087,0.0087,0,0.0435,0.0443,0.0469,0.0482,0.0485,0.0495,0.0503,0.05,0.0473,0.0453,0.0421,0.0378,0.0335,0.029,0.0214,0.0223,0.0168,0.0125,0.0123,0.0104,0.0076,0.0076,0.0079,0.0085,0.0085,0.0085,0.0085,0,0.0465,0.0478,0.0506,0.0508,0.0519,0.0528,0.0536,0.0523,0.0533,0.0506,0.0508,0.0445,0.0421,0.0344,0.0241,0.023,0.0161,0.0135,0.0074,0.0073,0.0076,0.0075,0.0087,0.0087,0.0087,0.0087,0.0087,0,0.0489,0.051,0.0524,0.0539,0.0578,0.0568,0.0605,0.0597,0.0602,0.0622,0.0554,0.0554,0.0433,0.0371,0.0273,0.0174,0.0184,0.0085,0.0066,0.0086,0.0086,0.0078,0.0077,0.0086,0.0086,0.0086,0.0087,0,0.0511,0.052,0.0555,0.058,0.0593,0.062,0.0658,0.0682,0.0678,0.0706,0.07,0.0642,0.0559,0.0436,0.0314,0.0224,0.0123,0.0084,0.0115,0.01,0.0039,0.004,0.002,0.0019,0.0019,0.0018,0.0018,0,0.0521,0.0542,0.0587,0.0615,0.0629,0.0671,0.0701,0.0718,0.0751,0.0759,0.0778,0.071,0.0666,0.0486,0.0319,0.0158,0.0126,0.0068,0.0046,0.0049,0.0033,0.0034,0.0036,0.006,0.006,0.006,0.006,0,0.0544,0.056,0.0589,0.0647,0.0691,0.0743,0.0791,0.0834,0.0856,0.0878,0.0892,0.0859,0.0693,0.0534,0.0316,0.0204,0.0094,0.0063,0.0063,0.0073,0.0084,0.0068,0.0069,0.006,0.006,0.006,0.006,0.006,0.0556,0.0582,0.0621,0.0679,0.0733,0.0803,0.0854,0.0907,0.0968,0.1005,0.0977,0.0929,0.0758,0.0476,0.0291,0.0094,0.0101,0.0027,0.0029,0.0029,0.0039,0.0048,0.0019,0.0019,0.0019,0.0019,0.0018,0,0.056,0.0596,0.0648,0.0718,0.078,0.0809,0.0903,0.0955,0.1029,0.1053,0.106,0.0884,0.071,0.0504,0.0222,0.0056,0.004,-0.0006,0.0016,0.0018,0.0019,0.0028,0.0005,0.0004,0.0004,0.0003,0,0,0.0563,0.0607,0.0639,0.0741,0.0794,0.0884,0.0943,0.1018,0.1061,0.1085,0.1054,0.1009,0.0764,0.0556,0.0334,0.017,0.0128,0.0132,0.0163,0.0218,0.0221,0.006,0.0079,0,0,0,0,0]}],[{"header":{"parameterUnit":"m.s-1","parameterCategory":2,"la1":30.2991,"la2":30.254,"lo1":-89.0895,"lo2":-89.0444,"dy":0.0017,"dx":0.0017,"nx":28,"ny":28,"refTime":"2025-03-16T09:00:00:Z","depth":"4","parameterNumber":2,"parameterNumberName":"U-component_of_CURRENTS"},"data":[0,0,0,0,0,0,0,0,0,0,0,0,0,0,0,0,0,0,0,0,0,0,0,0,0,0,0,0,0,0,0,0,0,0,0,0,0,0,0,0,0,0,0,0,0,0,0,0,0,0,0,0,0,0,0,0,0,0,0.0812,0.0813,0,0.0874,0.0875,0.0876,0.0917,0.0917,0.0917,0.0916,0.096,0.0961,0.0962,0,0,0,0,0,0,0,0,0,0,0,0,0,0.077,0.077,0.0812,0.0813,0.0813,0.0874,0.0875,0.0876,0.0917,0.0917,0.0916,0.0916,0.0959,0.0961,0.0962,0,0,0,0,0,0,0,0,0,0,0,0,0,0.0809,0.077,0.0812,0.0838,0.0841,0.0874,0.0875,0.0876,0.0917,0.0917,0.0916,0.0916,0.0959,0.0961,0.0962,0.0975,0,0,0.0968,0.0969,0,0,0,0,0,0,0,0,0.0806,0.081,0.0834,0.0837,0.084,0.0885,0.0876,0.0907,0.0917,0.0892,0.0916,0.0916,0.0931,0.0935,0.0952,0.0977,0.0979,0.0968,0.0969,0.097,0.097,0,0,0,0,0,0,0,0.0803,0.0808,0.084,0.0834,0.0838,0.086,0.0866,0.0882,0.0913,0.0894,0.0896,0.0897,0.0933,0.095,0.0953,0.0979,0.0968,0.097,0.0971,0.0971,0.1088,0.109,0,0,0,0,0,0,0.0787,0.0806,0.0838,0.0842,0.0819,0.0861,0.0867,0.0873,0.0913,0.0919,0.0897,0.0899,0.0947,0.0951,0.0954,0.1026,0.097,0.0972,0.0973,0.1086,0.1089,0.1091,0,0,0,0,0,0,0.0786,0.079,0.0836,0.0822,0.0829,0.0861,0.0868,0.0874,0.0921,0.0916,0.0921,0.094,0.0947,0.0952,0.0985,0.1025,0.0972,0.0974,0.1084,0.1087,0.109,0.1133,0,0,0,0,0,0,0.0785,0.0789,0.0809,0.0821,0.0829,0.0876,0.0868,0.0875,0.0919,0.0922,0.0954,0.0956,0.0947,0.0982,0.0987,0.1027,0.0975,0.1081,0.1085,0.1089,0.1129,0.1137,0.1144,0,0,0,0,0,0.0783,0.0803,0.0809,0.0814,0.0848,0.0877,0.0885,0.0909,0.0921,0.0951,0.0962,0.0957,0.101,0.0985,0.099,0.1032,0.108,0.1084,0.1089,0.1126,0.1136,0.1144,0,0,0,0,0,0,0.0803,0.0809,0.0816,0.084,0.0866,0.0883,0.0911,0.0931,0.0967,0.0969,0.0973,0.0977,0.1024,0.1025,0.0997,0.1079,0.1049,0.1055,0.1076,0.1085,0.1092,0.1066,0.0977,0,0,0,0,0,0.0813,0.0831,0.084,0.0869,0.0876,0.0903,0.0925,0.0937,0.0958,0.0977,0.1,0.1022,0.1044,0.1061,0.1078,0.112,0.1114,0.1155,0.1162,0.1168,0.1153,0.1181,0.1189,0.1106,0.1106,0.1106,0,0,0.0824,0.0837,0.0846,0.0876,0.0895,0.0915,0.0919,0.0951,0.098,0.0973,0.1033,0.1049,0.1061,0.1103,0.1126,0.1111,0.1195,0.1174,0.1179,0.116,0.1187,0.1194,0.1201,0.1109,0.1109,0.1108,0,0,0.085,0.0872,0.0886,0.0906,0.0932,0.0946,0.0963,0.0993,0.1022,0.1067,0.1072,0.1106,0.1154,0.1164,0.1175,0.1238,0.1233,0.1264,0.1281,0.131,0.1316,0.1322,0.134,0.1347,0.1269,0.1269,0.1269,0,0.087,0.0887,0.0901,0.092,0.0938,0.0964,0.0984,0.1017,0.1062,0.1083,0.1091,0.1162,0.1177,0.1217,0.1238,0.1253,0.1264,0.1242,0.1317,0.1322,0.1327,0.1345,0.1351,0.1272,0.1272,0.1271,0.1271,0,0.0889,0.0914,0.0928,0.0956,0.0983,0.1008,0.1033,0.1077,0.1114,0.1137,0.1196,0.1217,0.1258,0.1281,0.1275,0.1327,0.1324,0.1321,0.1286,0.1337,0.1354,0.136,0.1276,0.1275,0.1274,0.1273,0,0,0.0906,0.0933,0.0943,0.0958,0.1001,0.1021,0.1072,0.1116,0.1156,0.1201,0.1255,0.1293,0.131,0.1322,0.1338,0.1355,0.1407,0.1354,0.1354,0.1358,0.147,0.1368,0.1364,0.1421,0.1422,0.1423,0.1473,0,0.0924,0.0951,0.0969,0.1012,0.1023,0.1061,0.1111,0.1153,0.1201,0.1262,0.1284,0.1343,0.1327,0.1364,0.1378,0.1405,0.1423,0.1393,0.1431,0.1431,0.1322,0.1367,0.1426,0.1477,0.1478,0.1479,0.148,0,0.0934,0.0953,0.0984,0.1029,0.104,0.1081,0.1155,0.1201,0.1272,0.131,0.1354,0.1385,0.1431,0.1416,0.1461,0.1448,0.1458,0.1463,0.1466,0.135,0.1339,0.1414,0.149,0.1489,0.1489,0.1488,0.1487,0,0.0923,0.0966,0.0994,0.1008,0.1062,0.1102,0.1149,0.122,0.1261,0.1354,0.1392,0.1445,0.1489,0.1506,0.1518,0.1508,0.1552,0.1548,0.1458,0.1452,0.1508,0.1501,0.1569,0.1569,0.1568,0.1568,0.1568,0,0.0923,0.0947,0.0995,0.1009,0.1061,0.1105,0.1175,0.123,0.1308,0.1351,0.1421,0.1455,0.1513,0.1543,0.1543,0.1511,0.158,0.1454,0.1455,0.1529,0.1524,0.1513,0.1505,0.157,0.157,0.1569,0.1569,0,0.0899,0.093,0.0963,0.1027,0.1054,0.1096,0.1182,0.1222,0.1308,0.1372,0.1407,0.1484,0.1524,0.1555,0.1594,0.1536,0.1528,0.1498,0.1576,0.1581,0.1404,0.1399,0.1409,0.1406,0.1403,0.1401,0.1399,0,0.0881,0.0896,0.0967,0.0994,0.1031,0.1095,0.1135,0.122,0.1257,0.1365,0.1384,0.1461,0.15,0.1469,0.1509,0.1508,0.1481,0.1467,0.142,0.1387,0.1387,0.1386,0.1385,0.1395,0.1394,0.1393,0.1393,0,0.0851,0.089,0.0918,0.0969,0.1017,0.1055,0.112,0.1134,0.1226,0.1309,0.1334,0.1353,0.1389,0.1407,0.1415,0.1407,0.1472,0.1437,0.1443,0.1399,0.1369,0.1372,0.1374,0.1383,0.1384,0.1385,0.1386,0,0.0837,0.0849,0.0893,0.0931,0.0984,0.1,0.1038,0.1073,0.1114,0.1226,0.1229,0.1304,0.1378,0.1354,0.136,0.1348,0.1323,0.1267,0.1281,0.1292,0.1226,0.117,0.1119,0,0,0,0,0,0.0814,0.0815,0.0847,0.0877,0.0924,0.0952,0.1017,0.1054,0.1133,0.1122,0.1173,0.1202,0.1213,0.1247,0.121,0.1302,0.1327,0.1252,0.127,0.133,0.1341,0.1272,0,0,0,0,0,0,0.0796,0.0822,0.0824,0.0821,0.0831,0.0869,0.0905,0.0959,0.0957,0.1046,0.1061,0.1125,0.1157,0.1226,0.1188,0.1197,0.1181,0.1299,0.1295,0.1324,0.1334,0.1343,0.1275,0,0,0,0,0]},{"header":{"parameterUnit":"m.s-1","parameterCategory":2,"la1":30.2991,"la2":30.254,"lo1":-89.0895,"lo2":-89.0444,"dy":0.0017,"dx":0.0017,"nx":28,"ny":28,"refTime":"2025-03-16T09:00:00:Z","depth":"4","parameterNumber":3,"parameterNumberName":"V-component_of_CURRENTS"},"data":[0,0,0,0,0,0,0,0,0,0,0,0,0,0,0,0,0,0,0,0,0,0,0,0,0,0,0,0,0,0,0,0,0,0,0,0,0,0,0,0,0,0,0,0,0,0,0,0,0,0,0,0,0,0,0,0,0,0,0.0439,0.0439,0,0.0402,0.0401,0.04,0.0403,0.0404,0.0404,0.0405,0.0399,0.0398,0.0397,0,0,0,0,0,0,0,0,0,0,0,0,0,0.0462,0.0461,0.0439,0.0439,0.0439,0.0402,0.0401,0.04,0.0403,0.0404,0.0405,0.0406,0.0399,0.0398,0.0397,0,0,0,0,0,0,0,0,0,0,0,0,0,0.0438,0.0461,0.0439,0.0438,0.0437,0.0402,0.0401,0.04,0.0402,0.0404,0.0405,0.0406,0.0399,0.0398,0.0396,0.0362,0,0,0.0392,0.0391,0,0,0,0,0,0,0,0,0.0439,0.0437,0.0438,0.0438,0.0437,0.0411,0.0407,0.039,0.0402,0.0412,0.0405,0.0407,0.0407,0.0405,0.039,0.0362,0.0362,0.0392,0.0391,0.039,0.039,0,0,0,0,0,0,0,0.0441,0.0438,0.0421,0.0438,0.0437,0.0422,0.042,0.0403,0.0401,0.0411,0.0412,0.0413,0.0407,0.0391,0.039,0.0361,0.0392,0.0391,0.039,0.0389,0.0326,0.0325,0,0,0,0,0,0,0.0453,0.044,0.0422,0.042,0.0445,0.0421,0.0419,0.0416,0.04,0.04,0.0412,0.0413,0.0393,0.0392,0.039,0.0379,0.039,0.0389,0.0388,0.0327,0.0326,0.0325,0,0,0,0,0,0,0.0454,0.0452,0.0424,0.0432,0.0428,0.042,0.0416,0.0414,0.0409,0.0401,0.0401,0.0411,0.0394,0.0392,0.0383,0.0378,0.0388,0.0387,0.0328,0.0327,0.0325,0.0339,0,0,0,0,0,0,0.0454,0.0452,0.0449,0.0433,0.0428,0.0407,0.0415,0.0413,0.0409,0.041,0.04,0.04,0.0395,0.0385,0.0381,0.0376,0.0386,0.0329,0.0327,0.0326,0.0339,0.0338,0.0337,0,0,0,0,0,0.0455,0.0446,0.0449,0.0447,0.0426,0.0407,0.0402,0.0399,0.0408,0.04,0.0398,0.04,0.0373,0.0383,0.0379,0.0374,0.033,0.0328,0.0326,0.034,0.0338,0.0337,0,0,0,0,0,0,0.0447,0.0445,0.0448,0.0437,0.0427,0.0409,0.0402,0.04,0.0389,0.0396,0.0391,0.039,0.0379,0.037,0.0381,0.0349,0.035,0.0348,0.0362,0.0361,0.036,0.0372,0.0385,0,0,0,0,0,0.0446,0.0445,0.0436,0.0427,0.0425,0.0414,0.0406,0.0405,0.0396,0.0393,0.0385,0.0375,0.0363,0.036,0.0344,0.0327,0.0312,0.0318,0.0317,0.0316,0.0322,0.0291,0.0288,0.0319,0.0319,0.0319,0,0,0.0443,0.044,0.044,0.0427,0.042,0.0414,0.0412,0.0403,0.0399,0.0393,0.0382,0.037,0.0357,0.034,0.0333,0.0336,0.0297,0.0314,0.0314,0.032,0.0288,0.0285,0.0283,0.0318,0.0318,0.0318,0,0,0.0436,0.0433,0.0431,0.0425,0.042,0.0413,0.0414,0.0398,0.0393,0.0379,0.0375,0.0363,0.0341,0.033,0.0323,0.0303,0.0291,0.0295,0.0303,0.0272,0.027,0.0267,0.0239,0.0234,0.0296,0.0296,0.0296,0,0.0432,0.0431,0.0425,0.0422,0.0424,0.0417,0.0417,0.0402,0.0385,0.0381,0.0381,0.0348,0.0336,0.0321,0.0315,0.0302,0.0284,0.0313,0.0272,0.027,0.0267,0.0238,0.0233,0.0297,0.0297,0.0297,0.0297,0,0.0426,0.0428,0.0425,0.0427,0.0422,0.042,0.0411,0.04,0.0397,0.0387,0.0369,0.0346,0.0332,0.0319,0.0314,0.0289,0.028,0.0275,0.0281,0.0265,0.0235,0.0229,0.0297,0.0297,0.0297,0.0297,0,0,0.0415,0.0422,0.0424,0.0436,0.043,0.0429,0.0419,0.0411,0.0415,0.0387,0.0384,0.0352,0.0344,0.0334,0.0318,0.0291,0.0253,0.0279,0.0277,0.026,0.0185,0.0186,0.0179,0.0242,0.0241,0.024,0.0169,0,0.0417,0.0425,0.0424,0.0438,0.0446,0.0441,0.0436,0.0428,0.0419,0.0408,0.0379,0.0371,0.0348,0.0347,0.0313,0.0272,0.0239,0.0273,0.0195,0.0193,0.0203,0.0173,0.0238,0.0165,0.0163,0.0162,0.0162,0,0.0416,0.0426,0.0443,0.0461,0.0465,0.0471,0.048,0.0474,0.0455,0.0445,0.0425,0.0404,0.0365,0.0349,0.0264,0.0287,0.0238,0.02,0.0197,0.0192,0.0183,0.0183,0.0151,0.0152,0.0152,0.0153,0.0154,0,0.0427,0.0441,0.0463,0.0469,0.0482,0.0492,0.05,0.0491,0.0496,0.0476,0.0476,0.0422,0.0404,0.0331,0.0254,0.0258,0.0157,0.0152,0.0102,0.0101,0.0118,0.0121,0.0085,0.0086,0.0086,0.0086,0.0086,0,0.0432,0.045,0.0477,0.0491,0.0521,0.0522,0.0549,0.0542,0.0541,0.0549,0.0505,0.0493,0.0399,0.0333,0.0256,0.016,0.0154,0.0098,0.0081,0.0123,0.0128,0.0113,0.0117,0.0083,0.0084,0.0084,0.0085,0,0.0438,0.0454,0.0484,0.0514,0.053,0.0554,0.059,0.0603,0.0599,0.0607,0.0603,0.0542,0.0456,0.0356,0.0236,0.0171,0.0077,0.0043,0.0095,0.0083,0.0039,0.0045,-0.0021,-0.0022,-0.0022,-0.0023,-0.0023,0,0.0438,0.0457,0.0508,0.0533,0.0552,0.0592,0.0617,0.0631,0.0647,0.0635,0.0636,0.0566,0.0512,0.034,0.0233,0.0079,0.006,0.0006,0.002,0.0037,0.0027,0.0033,0.0039,-0.0024,-0.0024,-0.0024,-0.0024,0,0.0439,0.0465,0.049,0.0545,0.0586,0.0629,0.0668,0.0685,0.0697,0.0697,0.0659,0.0573,0.0475,0.0342,0.0223,0.0114,0.0038,0.0,0.0001,0.0014,0.0033,0.0025,0.0032,-0.0026,-0.0026,-0.0026,-0.0026,0,0.0439,0.0458,0.0499,0.0546,0.06,0.0646,0.0671,0.069,0.0707,0.0697,0.0683,0.0579,0.0521,0.036,0.025,0.0143,0.0117,0.008,0.0075,0.0076,0.0128,0.0168,0.013,0,0,0,0,0,0.0428,0.045,0.0494,0.0546,0.0602,0.0637,0.0692,0.0712,0.0733,0.0709,0.0698,0.0608,0.0447,0.0377,0.027,0.0237,0.0095,0.0107,0.0049,-0.0036,-0.0034,0.0011,0,0,0,0,0,0,0.0418,0.0456,0.0484,0.0541,0.0577,0.0639,0.0678,0.0695,0.0685,0.0688,0.0605,0.0573,0.0418,0.0503,0.0263,0.0232,0.0179,0.0036,0.0033,-0.0037,-0.0035,-0.0034,0.0013,0,0,0,0,0]}]]